All Stations Radar Satellite Rainfall Station Map Enhanced Site
Observations: Wind Gusts Humidity Temperature    
Forecasts: Wind Gusts Humidity Temperature    

Mt. Soledad (578) Station Data (Station Map)

Red Flag Warning: No
Fire Weather Zone: 243
SDGE Region: Beach Cities
Lat/Lon: 32.814/-117.241

Observations

Time (PDT)Wind Spd/GustTempRHFuel Moisture
10/1 7:10pmWNW 2 G 567°85%11.97%
10/1 7:00pmWNW 3 G 667°84%11.86%
10/1 6:50pmWNW 2 G 467°84%11.77%
10/1 6:40pmW 2 G 667°83%11.65%
10/1 6:30pmNW 3 G 668°83%11.56%
10/1 6:20pmWNW 4 G 668°82%11.47%
10/1 6:10pmWNW 3 G 668°81%11.39%
10/1 6:00pmWNW 3 G 668°81%11.3%
10/1 5:50pmWNW 3 G 769°79%11.21%
10/1 5:40pmW 3 G 770°78%11.15%
10/1 5:30pmSW 3 G 770°77%11.09%
10/1 5:20pmW 3 G 769°78%11.04%
10/1 5:10pmSW 4 G 870°77%11.03%
10/1 5:00pmSW 3 G 1070°76%11.12%
10/1 4:50pmWSW 3 G 670°76%11.14%
10/1 4:40pmWSW 3 G 870°77%11.12%
10/1 4:30pmWSW 5 G 1069°78%11.16%
10/1 4:20pmWNW 4 G 869°80%11.05%
10/1 4:10pmSW 4 G 870°78%10.98%
10/1 4:00pmSW 4 G 970°77%11.1%
10/1 3:50pmWSW 4 G 970°76%11.09%
10/1 3:40pmW 4 G 971°76%11%
10/1 3:30pmSW 5 G 1170°77%11.09%
10/1 3:20pmW 4 G 971°76%11.12%
10/1 3:10pmWSW 4 G 971°76%11.19%
10/1 3:00pmWSW 4 G 871°75%11.18%
10/1 2:50pmWSW 5 G 1071°75%11.18%
10/1 2:40pmSW 4 G 1072°75%11.31%
10/1 2:30pmSW 6 G 1171°77%11.32%
10/1 2:20pmSW 5 G 1171°76%11.35%
10/1 2:10pmSW 4 G 871°76%11.37%
10/1 2:00pmSW 5 G 1071°75%11.41%
10/1 1:50pmSSW 5 G 1071°75%11.39%
10/1 1:40pmSSW 5 G 1172°73%11.37%
10/1 1:30pmWSW 4 G 1171°75%11.44%
10/1 1:20pmSSW 5 G 1170°75%11.39%
10/1 1:10pmSW 6 G 1270°75%11.42%
10/1 1:00pmSW 5 G 1070°75%11.45%
10/1 12:50pmSSW 5 G 1270°75%11.46%
10/1 12:40pmSSW 5 G 1170°76%11.49%
10/1 12:30pmSW 4 G 1270°75%11.57%
10/1 12:20pmSW 4 G 970°74%11.62%
10/1 12:10pmSW 4 G 870°75%11.78%
10/1 12:00pmSW 4 G 1070°75%11.9%
10/1 11:50amSW 4 G 870°74%12.09%
10/1 11:40amSSW 4 G 870°75%12.26%
10/1 11:30amSSW 4 G 870°74%12.34%
10/1 11:20amSSW 4 G 970°74%12.42%
10/1 11:10amSW 3 G 771°73%12.54%
10/1 11:00amSSW 4 G 870°74%12.73%
10/1 10:50amSSE 4 G 770°72%12.85%
10/1 10:40amSSE 3 G 770°73%13.05%
10/1 10:30amS 4 G 769°75%13.26%
10/1 10:20amSSE 3 G 669°76%13.44%
10/1 10:10amSSW 3 G 769°77%13.62%
10/1 10:00amSSE 3 G 868°78%13.84%
10/1 9:50amSE 4 G 768°77%13.95%
10/1 9:40amSSE 2 G 667°81%14.39%
10/1 9:30amSE 3 G 667°82%14.52%
10/1 9:20amS 2 G 567°82%14.66%
10/1 9:10amSSE 3 G 766°83%14.84%
10/1 9:00amSSE 3 G 666°84%14.96%
10/1 8:50amSSW 2 G 366°84%15.08%
10/1 8:40amSSE 4 G 966°84%15.16%
10/1 8:30amSE 4 G 766°84%15.26%
10/1 8:20amSE 5 G 866°85%15.37%
10/1 8:10amSE 4 G 866°85%15.49%
10/1 8:00amSE 3 G 665°86%15.58%
10/1 7:50amSE 3 G 565°87%15.65%
10/1 7:40amSE 3 G 465°87%15.72%
10/1 7:30amSSE 3 G 665°87%15.75%
10/1 7:20amSE 2 G 565°87%15.81%
10/1 7:10amSE 2 G 465°87%15.82%
10/1 7:00amESE 2 G 465°87%15.85%
10/1 6:50amSSE 2 G 565°87%15.88%
10/1 6:40amS 2 G 565°88%15.95%
10/1 6:30amS 3 G 565°89%15.99%
10/1 6:20amS 2 G 365°90%16.04%
10/1 6:10amS 1 G 265°90%16.1%
10/1 6:00amSE 2 G 465°90%16.1%
10/1 5:50amSE 3 G 665°90%16.04%
10/1 5:40amSE 3 G 565°90%15.93%
10/1 5:30amSE 3 G 565°90%15.82%
10/1 5:20amSE 4 G 666°89%15.73%
10/1 5:10amSE 3 G 666°88%15.64%
10/1 5:00amSSE 4 G 666°87%15.53%
10/1 4:50amSE 4 G 766°85%15.45%
10/1 4:40amSSE 4 G 867°85%15.42%
10/1 4:30amSE 4 G 767°85%15.4%
10/1 4:20amSSE 3 G 667°87%15.4%
10/1 4:10amSE 3 G 567°86%15.38%
10/1 4:00amSSE 2 G 567°86%15.38%
10/1 3:50amSSE 2 G 467°85%15.37%
10/1 3:40amS 3 G 567°85%15.34%
10/1 3:30amSSE 2 G 567°86%15.38%
10/1 3:20amSSE 2 G 567°85%15.38%
10/1 3:10amSSW 2 G 467°85%15.4%
10/1 3:00amS 1 G 367°85%15.42%
10/1 2:50amS 1 G 367°86%15.45%
10/1 2:40amSSE 2 G 667°86%15.46%
10/1 2:30amSSE 2 G 567°86%15.48%
10/1 2:20amS 3 G 667°86%15.5%
10/1 2:10amSSE 3 G 667°88%15.55%
10/1 2:00amSE 2 G 467°88%15.58%
10/1 1:50amSSE 2 G 567°89%15.6%
10/1 1:40amSSE 2 G 567°89%15.62%
10/1 1:30amS 3 G 667°90%15.64%
10/1 1:20amSSE 3 G 667°90%15.66%
10/1 1:10amSSE 3 G 767°92%15.68%
10/1 1:00amSE 2 G 467°92%15.67%
10/1 12:50amSE 2 G 567°93%15.64%
10/1 12:40amSE 2 G 467°93%15.58%
10/1 12:30amESE 2 G 467°93%15.54%
10/1 12:20amESE 1 G 367°92%15.49%
10/1 12:10amSE 1 G 267°92%15.41%
10/1 12:00amSE 2 G 367°92%15.34%
9/30 11:50pmSE 1 G 267°92%15.24%
9/30 11:40pmSE 0 G 167°92%15.12%
9/30 11:30pmN 0 G 067°92%14.94%
9/30 11:20pmWNW 0 G 167°91%14.81%
9/30 11:10pmSSW 1 G 267°91%14.7%
9/30 11:00pmS 1 G 267°91%14.51%
9/30 10:50pmNW 0 G 267°90%14.37%
9/30 10:40pmS 0 G 167°90%14.22%
9/30 10:30pmS 1 G 267°90%14.13%
9/30 10:20pmSSW 0 G 267°90%14.03%
9/30 10:10pmSSW 0 G 167°90%13.87%
9/30 10:00pmSW 1 G 168°90%13.73%
9/30 9:50pmW 1 G 268°90%13.63%
9/30 9:40pmW 1 G 268°90%13.52%
9/30 9:30pmW 1 G 168°90%13.4%
9/30 9:20pmWSW 1 G 268°90%13.26%
9/30 9:10pmSW 1 G 168°90%13.14%
9/30 9:00pmSW 0 G 168°90%12.95%
9/30 8:50pmWNW 0 G 168°89%12.83%
9/30 8:40pmS 0 G 168°89%12.62%
9/30 8:30pmSW 1 G 269°88%12.54%
9/30 8:20pmSW 1 G 369°87%12.4%
9/30 8:10pmSW 0 G 169°87%12.28%
9/30 8:00pmSSW 0 G 169°86%12.12%
9/30 7:50pmSSE 1 G 269°86%11.95%
9/30 7:40pmSW 0 G 269°86%11.88%
9/30 7:30pmSSW 1 G 269°85%11.77%
9/30 7:20pmS 1 G 269°85%11.65%
9/30 7:10pmSSW 1 G 270°85%11.54%
9/30 7:00pmSW 1 G 370°84%11.42%
9/30 6:50pmSW 2 G 370°83%11.3%
9/30 6:40pmSW 2 G 470°82%11.17%
9/30 6:30pmSW 1 G 371°81%11.06%
9/30 6:20pmSW 2 G 471°80%10.96%
9/30 6:10pmWSW 2 G 572°77%10.86%
9/30 6:00pmWSW 2 G 672°75%10.77%